Tracking 17857 objects as of 29-September-2016
HD Live streaming from Space Station
objects crossing your sky now

PSLV DEB

Track PSLV DEB now!
10-day predictions


NORAD ID: 27114
Int'l Code: 2001-049BJ
Perigee: 389.1 km
Apogee: 402.3 km
Inclination: 97.8 °
Period: 92.3 minutes
Semi major axis: 6766 km
RCS: 0.0473 m2 (small)
Launch date: October 22, 2001
Source: India (IND)
Launch site: SIRHARIKOTA (SRI)

Note: This is SATELLITE DEBRIS
Your satellite tracking list
Your tracking list is empty





NASA's NSSDC Master Catalog

Two Line Element Set (TLE):
1 27114U 01049BJ  16273.08780100  .00083480  00000-0  10362-2 0  9999
2 27114  97.8301 289.6001 0009732  91.9091 268.3278 15.59685310805014
Source of the keplerian elements: AFSPC

N2YO: 2162